TimeCST,TemperatureF,Dew PointF,Humidity,Sea Level PressureIn,VisibilityMPH,Wind Direction,Wind SpeedMPH,Gust SpeedMPH,PrecipitationIn,Events,Conditions,WindDirDegrees,DateUTC
12:53 AM,23.0,19.9,88,29.89,6.0,South,9.2,-,N/A,,Clear,190,2013-02-24 06:53:00
1:53 AM,23.0,19.9,88,29.90,5.0,SSW,10.4,-,N/A,,Clear,200,2013-02-24 07:53:00
2:53 AM,21.0,19.0,92,29.91,4.0,SSW,8.1,-,N/A,,Clear,200,2013-02-24 08:53:00
3:53 AM,19.9,19.0,96,29.91,4.0,SSW,4.6,-,N/A,,Clear,200,2013-02-24 09:53:00
4:29 AM,19.4,19.4,100,29.85,2.5,SW,3.5,-,N/A,,Clear,230,2013-02-24 10:29:00
4:51 AM,19.4,19.4,100,29.86,1.8,SSW,3.5,-,N/A,,Clear,200,2013-02-24 10:51:00
4:53 AM,19.9,19.0,96,29.92,1.8,SSW,4.6,-,N/A,,Partly Cloudy,210,2013-02-24 10:53:00
5:09 AM,19.4,17.6,93,29.85,1.5,SW,4.6,-,N/A,,Mostly Cloudy,220,2013-02-24 11:09:00
5:26 AM,19.4,17.6,93,29.86,2.0,SW,5.8,-,N/A,,Overcast,230,2013-02-24 11:26:00
5:30 AM,19.4,17.6,93,29.86,0.8,SW,5.8,-,N/A,,Overcast,220,2013-02-24 11:30:00
5:36 AM,19.4,17.6,93,29.86,0.2,SW,5.8,-,N/A,Fog,Light Freezing Fog,230,2013-02-24 11:36:00
5:53 AM,19.0,19.0,100,29.93,0.2,SW,4.6,-,N/A,Fog,Light Freezing Fog,220,2013-02-24 11:53:00
6:49 AM,17.6,17.6,100,29.88,0.5,WSW,5.8,-,N/A,Fog,Light Freezing Fog,240,2013-02-24 12:49:00
6:53 AM,18.0,17.1,96,29.95,0.5,West,4.6,-,N/A,Fog,Light Freezing Fog,260,2013-02-24 12:53:00
7:18 AM,17.6,15.8,93,29.89,0.2,WSW,4.6,-,N/A,Fog,Light Freezing Fog,240,2013-02-24 13:18:00
7:40 AM,17.6,15.8,93,29.89,0.2,Calm,Calm,-,N/A,Fog,Light Freezing Fog,0,2013-02-24 13:40:00
7:53 AM,18.0,16.0,92,29.96,0.2,SW,3.5,-,N/A,Fog,Light Freezing Fog,230,2013-02-24 13:53:00
8:00 AM,17.6,15.8,93,29.89,0.5,WSW,3.5,-,N/A,Fog,Light Freezing Fog,250,2013-02-24 14:00:00
8:38 AM,19.4,17.6,93,29.93,1.0,West,5.8,-,N/A,,Overcast,270,2013-02-24 14:38:00
8:51 AM,19.4,17.6,93,29.93,2.5,West,6.9,-,N/A,,Overcast,280,2013-02-24 14:51:00
8:53 AM,19.9,17.1,89,30.01,2.5,West,9.2,-,N/A,,Overcast,280,2013-02-24 14:53:00
9:01 AM,19.4,17.6,93,29.94,1.8,West,8.1,-,N/A,,Overcast,280,2013-02-24 15:01:00
9:10 AM,19.4,17.6,93,29.94,2.0,WNW,5.8,-,N/A,,Overcast,290,2013-02-24 15:10:00
9:37 AM,21.2,19.4,93,29.94,1.5,WNW,3.5,-,N/A,,Overcast,290,2013-02-24 15:37:00
9:50 AM,21.2,19.4,93,29.94,2.0,WNW,3.5,-,N/A,,Overcast,300,2013-02-24 15:50:00
9:53 AM,21.9,19.0,89,30.02,2.0,WNW,4.6,-,N/A,,Overcast,290,2013-02-24 15:53:00
10:15 AM,23.0,19.4,86,29.95,2.0,Calm,Calm,-,N/A,,Mostly Cloudy,0,2013-02-24 16:15:00
10:28 AM,23.0,19.4,86,29.95,3.0,WNW,4.6,-,N/A,,Mostly Cloudy,300,2013-02-24 16:28:00
10:37 AM,23.0,19.4,86,29.96,2.5,WNW,4.6,-,N/A,,Mostly Cloudy,300,2013-02-24 16:37:00
10:53 AM,25.0,21.9,88,30.03,1.5,Calm,Calm,-,N/A,,Overcast,0,2013-02-24 16:53:00
11:30 AM,24.8,23.0,93,29.96,2.0,Calm,Calm,-,N/A,,Overcast,0,2013-02-24 17:30:00
11:51 AM,24.8,23.0,93,29.95,3.0,North,5.8,-,N/A,,Overcast,10,2013-02-24 17:51:00
11:53 AM,25.0,23.0,92,30.03,4.0,North,4.6,-,N/A,,Overcast,10,2013-02-24 17:53:00
12:06 PM,26.6,23.0,86,29.96,4.0,Calm,Calm,-,N/A,,Overcast,0,2013-02-24 18:06:00
12:22 PM,26.6,24.8,93,29.96,5.0,Calm,Calm,-,N/A,,Overcast,0,2013-02-24 18:22:00
12:53 PM,28.0,24.1,85,30.02,5.0,North,3.5,-,N/A,,Overcast,360,2013-02-24 18:53:00
1:15 PM,28.4,24.8,86,29.94,5.0,North,6.9,-,N/A,,Overcast,360,2013-02-24 19:15:00
1:30 PM,28.4,24.8,86,29.94,4.0,North,8.1,-,N/A,,Overcast,360,2013-02-24 19:30:00
1:53 PM,28.9,25.0,85,30.00,4.0,North,9.2,-,N/A,,Overcast,10,2013-02-24 19:53:00
2:53 PM,30.9,27.0,85,30.00,5.0,North,6.9,-,N/A,,Overcast,10,2013-02-24 20:53:00
3:12 PM,30.2,26.6,86,29.93,5.0,North,9.2,-,N/A,,Overcast,360,2013-02-24 21:12:00
3:53 PM,30.0,27.0,88,30.01,4.0,NNE,9.2,-,N/A,,Overcast,30,2013-02-24 21:53:00
4:53 PM,30.0,26.1,85,30.01,5.0,NNE,10.4,-,N/A,,Overcast,20,2013-02-24 22:53:00
5:53 PM,30.0,26.1,85,30.02,5.0,NNE,11.5,-,N/A,,Overcast,20,2013-02-24 23:53:00
6:09 PM,30.2,26.6,86,29.96,4.0,NNE,11.5,-,N/A,,Overcast,20,2013-02-25 00:09:00
6:53 PM,28.9,26.1,89,30.07,5.0,NNE,10.4,-,N/A,,Overcast,30,2013-02-25 00:53:00
7:53 PM,28.9,26.1,89,30.11,4.0,NNE,8.1,-,0.00,Snow,Light Snow,20,2013-02-25 01:53:00
8:24 PM,28.4,26.6,93,30.03,4.0,NNE,11.5,-,0.00,Snow,Light Snow,20,2013-02-25 02:24:00
8:51 PM,28.4,26.6,93,30.05,3.0,North,11.5,-,0.00,Snow,Light Snow,10,2013-02-25 02:51:00
8:53 PM,28.9,26.1,89,30.12,3.0,North,11.5,-,0.00,,Overcast,360,2013-02-25 02:53:00
9:41 PM,28.4,26.6,93,30.07,2.5,North,9.2,-,0.00,Snow,Light Snow,10,2013-02-25 03:41:00
9:53 PM,28.9,27.0,92,30.14,2.5,North,10.4,-,0.00,Snow,Light Snow,10,2013-02-25 03:53:00
10:03 PM,28.4,26.6,93,30.08,2.0,NNE,6.9,-,0.00,Snow,Light Snow,20,2013-02-25 04:03:00
10:09 PM,28.4,26.6,93,30.08,1.8,North,5.8,-,0.00,Snow,Light Snow,10,2013-02-25 04:09:00
10:27 PM,28.4,28.4,100,30.08,1.5,North,5.8,-,0.01,Snow,Light Snow,10,2013-02-25 04:27:00
10:53 PM,28.9,27.0,92,30.13,1.2,North,9.2,-,0.02,Snow,Light Snow,10,2013-02-25 04:53:00
11:00 PM,28.4,26.6,93,30.06,1.2,North,8.1,-,0.00,Snow,Light Snow,10,2013-02-25 05:00:00
11:37 PM,28.4,26.6,93,30.06,1.2,North,8.1,-,0.01,Snow,Light Snow,360,2013-02-25 05:37:00
11:53 PM,28.9,27.0,92,30.13,1.2,North,9.2,-,0.02,Snow,Light Snow,10,2013-02-25 05:53:00